Back to catalog

STARLINK-3209

AliveCommunicationsVLEO
NORAD 49752·PAYLOAD·🇺🇸 United States

Launched Dec 2, 2021 from Cape Canaveral Space Force Station

Loading…

Next Passes (next 24 hours)

TLE

FreshSource: CelesTrak SupGP

Epoch: Sep 14, 2026, 20:28 UTC

1 49752C 21115AE  26257.85326389 -.00038971  00000+0 -11516-2 0  2575
2 49752  53.1582 355.7821 0001223  81.7074 357.0161 15.34404705    16

Track STARLINK-3209 in real time with AllMySat

Download on the App Store